Watford City, ND

2:53 PM CDT on May 29, 2017 (GMT -0500)
Watford City

Weather History for KS25 - November, 2012

Change the Weather History Date:

Wednesday, November 28, 2012

  Actual Average (KISN) Record (KISN)
Temperature  
Mean Temperature 22 °F -  
Max Temperature 35 °F 29 °F 56 °F (2002)
Min Temperature 8 °F 10 °F -22 °F (1896)
Degree Days  
Heating Degree Days 44    
Moisture  
Dew Point 17 °F    
Average Humidity 87    
Maximum Humidity 100    
Minimum Humidity 65    
Precipitation  
Precipitation 0.00 in - - ()
Sea Level Pressure  
Sea Level Pressure 30.02 in    
Wind  
Wind Speed 2 mph (NE)    
Max Wind Speed 13 mph    
Max Gust Speed 16 mph    
Visibility 10 miles    
Events      
Averages and records for this station are not official NWS values.
T = Trace of Precipitation, MM = Missing Value Source: NWS Daily Summary

Daily Weather History Graph

Daily Weather History Graph

Search for Another Location

Airport or City:

Trip Planner

Search our weather history database for the weather conditions in past years. The results will help you decide how hot, cold, wet, or windy it might be!

Date:

Astronomy

Nov. 28, 2012 Rise Set
Actual Time 8:17 AM CST 5:04 PM CST
Civil Twilight 7:42 AM CST 5:39 PM CST
Nautical Twilight 7:04 AM CST 6:17 PM CST
Astronomical Twilight 6:27 AM CST 6:55 PM CST
Moon 5:20 PM CST (11/28) 8:17 AM CST (11/28)
Length of Visible Light 9h 56m
Length of Day
8h 46m
Full, 100% of the Moon is Illuminated
Nov 28
Full
Dec 6
Last Quarter
Dec 13
New
Dec 19
First Quarter
Dec 28
Full

Hourly Weather History & Observations

Time (CST) Temp. Windchill Dew Point Humidity Pressure Visibility Wind Dir Wind Speed Gust Speed Precip Events Conditions
12:35 AM 10.4 °F - 6.8 °F 85% 30.13 in 10.0 mi Calm Calm - N/A   Clear
12:55 AM 10.4 °F - 6.8 °F 85% 30.13 in 10.0 mi Calm Calm - N/A   Clear
1:15 AM 10.4 °F - 6.8 °F 85% 30.13 in 10.0 mi Calm Calm - N/A   Clear
1:35 AM 8.6 °F - 6.8 °F 92% 30.12 in 10.0 mi Calm Calm - N/A   Clear
1:55 AM 8.6 °F - 6.8 °F 92% 30.12 in 10.0 mi Calm Calm - N/A   Clear
2:15 AM 8.6 °F - 6.8 °F 92% 30.11 in 10.0 mi Calm Calm - N/A   Clear
2:35 AM 10.4 °F - 8.6 °F 92% 30.10 in 10.0 mi Calm Calm - N/A   Clear
2:55 AM 15.8 °F 6.1 °F 14.0 °F 93% 30.09 in 10.0 mi ESE 6.9 mph - N/A   Clear
3:15 AM 14.0 °F 8.2 °F 10.4 °F 86% 30.09 in 10.0 mi South 3.5 mph - N/A   Clear
3:35 AM 12.2 °F 6.1 °F 8.6 °F 85% 30.08 in 10.0 mi South 3.5 mph - N/A   Clear
3:55 AM 12.2 °F - 8.6 °F 85% 30.07 in 10.0 mi Calm Calm - N/A   Clear
4:15 AM 10.4 °F - 8.6 °F 92% 30.06 in 10.0 mi Calm Calm - N/A   Clear
4:35 AM 10.4 °F - 8.6 °F 92% 30.05 in 10.0 mi Calm Calm - N/A   Clear
4:55 AM 10.4 °F - 8.6 °F 92% 30.04 in 10.0 mi Calm Calm - N/A   Clear
5:15 AM 10.4 °F 4.0 °F 8.6 °F 92% 30.04 in 10.0 mi SSW 3.5 mph - N/A   Clear
5:35 AM 10.4 °F - 8.6 °F 92% 30.03 in 10.0 mi Calm Calm - N/A   Clear
5:55 AM 12.2 °F 6.1 °F 10.4 °F 92% 30.02 in 10.0 mi SW 3.5 mph - N/A   Clear
6:15 AM 10.4 °F 2.2 °F 8.6 °F 92% 30.02 in 10.0 mi North 4.6 mph - N/A   Clear
6:35 AM 10.4 °F 2.2 °F 8.6 °F 92% 30.01 in 10.0 mi North 4.6 mph - N/A   Clear
6:55 AM 10.4 °F 2.2 °F 8.6 °F 92% 30.01 in 10.0 mi North 4.6 mph - N/A   Clear
7:15 AM 14.0 °F - 10.4 °F 86% 30.01 in 10.0 mi North - - N/A   Clear
7:35 AM 14.0 °F - 10.4 °F 86% 30.00 in 8.0 mi Calm Calm - N/A   Clear
7:55 AM 14.0 °F - 12.2 °F 93% 30.00 in 8.0 mi Calm Calm - N/A   Clear
8:15 AM 15.8 °F - 12.2 °F 86% 30.00 in 10.0 mi Calm Calm - N/A   Clear
8:35 AM 15.8 °F - 12.2 °F 86% 30.00 in 7.0 mi Calm Calm - N/A   Clear
8:55 AM 15.8 °F 10.2 °F 14.0 °F 93% 30.00 in 9.0 mi South 3.5 mph - N/A   Clear
9:15 AM 15.8 °F - 14.0 °F 93% 30.00 in 5.0 mi Calm Calm - N/A   Clear
9:35 AM 17.6 °F - 15.8 °F 93% 30.00 in 10.0 mi Calm Calm - N/A   Clear
9:55 AM 17.6 °F - 15.8 °F 93% 30.00 in 10.0 mi Calm Calm - N/A   Clear
10:15 AM 19.4 °F - 17.6 °F 93% 30.01 in 10.0 mi Calm Calm - N/A   Clear
10:35 AM 21.2 °F - 19.4 °F 93% 30.01 in 10.0 mi Calm Calm - N/A   Clear
10:55 AM 23.0 °F - 19.4 °F 86% 30.02 in 10.0 mi Calm Calm - N/A   Clear
11:15 AM 24.8 °F - 21.2 °F 86% 30.01 in 10.0 mi Calm Calm - N/A   Clear
11:35 AM 26.6 °F 22.6 °F 21.2 °F 80% 30.00 in 10.0 mi SSW 3.5 mph - N/A   Clear
11:55 AM 26.6 °F - 23.0 °F 86% 30.00 in 10.0 mi Calm Calm - N/A   Clear
12:15 PM 28.4 °F - 24.8 °F 86% 30.00 in 10.0 mi Calm Calm - N/A   Clear
12:35 PM 30.2 °F - 24.8 °F 80% 29.99 in 10.0 mi Calm Calm - N/A   Clear
12:55 PM 32.0 °F - 24.8 °F 75% 29.99 in 10.0 mi Calm Calm - N/A   Partly Cloudy
1:15 PM 32.0 °F - 24.8 °F 75% 29.98 in 10.0 mi Calm Calm - N/A   Mostly Cloudy
1:35 PM 32.0 °F - 24.8 °F 75% 29.98 in 10.0 mi Calm Calm - N/A   Partly Cloudy
1:55 PM 32.0 °F - 24.8 °F 75% 29.98 in 10.0 mi Calm Calm - N/A   Clear
2:15 PM 32.0 °F - 26.6 °F 80% 29.98 in 10.0 mi Calm Calm - N/A   Clear
2:35 PM 33.8 °F - 26.6 °F 75% 29.97 in 10.0 mi Calm Calm - N/A   Clear
2:55 PM 35.6 °F 29.9 °F 24.8 °F 65% 29.97 in 10.0 mi NNW 6.9 mph - N/A   Clear
3:15 PM 33.8 °F 26.4 °F 24.8 °F 70% 29.98 in 10.0 mi NNW 9.2 mph - N/A   Clear
3:35 PM 33.8 °F 27.7 °F 24.8 °F 70% 29.98 in 10.0 mi North 6.9 mph - N/A   Clear
3:55 PM 32.0 °F 24.8 °F 23.0 °F 69% 29.99 in 10.0 mi NNW 8.1 mph - N/A   Partly Cloudy
4:15 PM 32.0 °F 24.2 °F 23.0 °F 69% 30.00 in 10.0 mi North 9.2 mph - N/A   Mostly Cloudy
4:35 PM 32.0 °F 24.2 °F 24.8 °F 75% 30.00 in 10.0 mi NNE 9.2 mph - N/A   Mostly Cloudy
4:55 PM 30.2 °F 21.3 °F 23.0 °F 75% 30.00 in 10.0 mi NNE 10.4 mph - N/A   Overcast
5:15 PM 28.4 °F 21.2 °F 24.8 °F 86% 29.99 in 10.0 mi NNE 6.9 mph - N/A   Mostly Cloudy
5:35 PM 26.6 °F 20.0 °F 23.0 °F 86% 29.99 in 10.0 mi NE 5.8 mph - N/A   Partly Cloudy
5:55 PM 26.6 °F 21.2 °F 23.0 °F 86% 29.99 in 10.0 mi ENE 4.6 mph - N/A   Clear
6:15 PM 24.8 °F 19.1 °F 21.2 °F 86% 29.99 in 10.0 mi NNE 4.6 mph - N/A   Clear
6:35 PM 23.0 °F 17.0 °F 21.2 °F 93% 29.99 in 10.0 mi NE 4.6 mph - N/A   Clear
6:55 PM 23.0 °F 18.4 °F 19.4 °F 86% 30.00 in 10.0 mi NE 3.5 mph - N/A   Clear
7:15 PM 23.0 °F 17.0 °F 19.4 °F 86% 30.00 in 10.0 mi ENE 4.6 mph - N/A   Clear
7:35 PM 21.2 °F 13.6 °F 19.4 °F 93% 30.00 in 10.0 mi NE 5.8 mph - N/A   Clear
7:55 PM 23.0 °F 14.7 °F 19.4 °F 86% 30.01 in 10.0 mi ENE 6.9 mph - N/A   Mostly Cloudy
8:15 PM 23.0 °F 13.1 °F 19.4 °F 86% 30.00 in 10.0 mi East 9.2 mph - N/A   Mostly Cloudy
8:35 PM 23.0 °F 17.0 °F 19.4 °F 86% 30.01 in 10.0 mi NE 4.6 mph - N/A   Clear
8:55 PM 19.4 °F 11.5 °F 17.6 °F 93% 30.02 in 10.0 mi NE 5.8 mph - N/A   Clear
9:15 PM 19.4 °F 11.5 °F 17.6 °F 93% 30.02 in 10.0 mi ENE 5.8 mph - N/A   Clear
9:35 PM 17.6 °F 9.3 °F 17.6 °F 100% 30.02 in 10.0 mi NE 5.8 mph - N/A   Clear
9:55 PM 17.6 °F 10.7 °F 15.8 °F 93% 30.01 in 10.0 mi NE 4.6 mph - N/A   Partly Cloudy
10:15 PM 19.4 °F 11.5 °F 17.6 °F 93% 30.01 in 10.0 mi East 5.8 mph - N/A   Mostly Cloudy
10:35 PM 19.4 °F 14.3 °F 19.4 °F 100% 30.01 in 10.0 mi East 3.5 mph - N/A   Overcast
10:55 PM 19.4 °F 7.2 °F 19.4 °F 100% 30.02 in 10.0 mi East 11.5 mph - N/A   Overcast
11:15 PM 19.4 °F 8.6 °F 19.4 °F 100% 30.02 in 10.0 mi East 9.2 mph - N/A   Overcast
11:35 PM 19.4 °F 6.6 °F 17.6 °F 93% 30.02 in 10.0 mi East 12.7 mph - N/A   Overcast
11:55 PM 19.4 °F 7.9 °F 19.4 °F 100% 30.01 in 10.0 mi East 10.4 mph 16.1 mph N/A   Overcast